Погода в Кала-д оре

Испания     39°22′31″N   3°13′30″E
темп.,
°C
ветер,
м/с
пор.,
м/с
влажн.,
%
обл.,
%
осадки,
мм/ч
давл.,
гПа
погр.,
м
17 мая, пн
пн1723:00+21зюз225919 0.0 101212
02:00+16св711851 0.0 1014435
05:00+16св7108217 0.0 1014577
08:00+17св79675 0.0 1017714
11:00+19всв77574 0.0 1019901
14:00+20в655497 0.0 1019999
17:00+19в645558 0.0 1019870
20:00+17в556567 0.0 1019628
18 мая, вт
вт1823:00+15вюв46765 0.0 1020279
02:00+15вюв22795 0.0 1021161
05:00+14всв127965 0.0 1020158
08:00+17юв2368100 0.0 1020293
11:00+19юв4452100 0.0 1021725
14:00+21ююв555298 0.0 1020865
17:00+21ю55494 0.0 1018760
20:00+19ююз55610 0.0 1018412
19 мая, ср
ср1923:00+16с22771 0.0 102023
02:00+16с36895 0.0 1021168
05:00+15св469145 0.0 1020234
08:00+16св67705 0.0 1022528
11:00+19св665649 0.0 1023923
14:00+20св655148 0.0 10231129
17:00+20св6650100 0.0 10231012
20:00+18всв4454100 0.0 1023614
20 мая, чт
чт2023:00+15всв357233 0.0 1025261
02:00+14св227634 0.0 1025152
05:00+14всв3572100 0.0 1024313
08:00+16св357070 0.0 1025512
11:00+18всв5459100 0.0 10251228
14:00+18всв4461100 0.1 10251163
17:00+16в3357100 0.1 1025711
20:00+17в225356 0.1 1025564
21 мая, пт
пт2123:00+14ссв016316 0.0 1026121
02:00+13з226997 0.0 102447
05:00+13зсз227363 0.0 102342
08:00+15ссз1159100 0.0 102369
11:00+19юв4345100 0.0 1023689
14:00+20юв544982 0.0 1023799
17:00+19юв555465 0.0 1021609
20:00+18юв4565100 0.0 1019462